This is the latest recevied weather packets stored in our database for station/object IW1RCO-13. If no packets are shown the sender has not sent any weather packets the latest 10 day(s).
| Time | Temp. | Humidity | Pressure | Rain* | Wind** | Luminosity | Snow |
|---|---|---|---|---|---|---|---|
| 1788441569 | 29.44° C | 58% | 1019.9 hPa | - | - | - | - |
| 1788440968 | 30.56° C | 55% | 1019.3 hPa | - | - | - | - |
| 1788440672 | 30° C | 57% | 1019.9 hPa | - | - | - | - |
| 1788440368 | 30° C | 56% | 1019.3 hPa | - | - | - | - |
| 1788440071 | 29.44° C | 57% | 1019.4 hPa | - | - | - | - |
| 1788439768 | 28.89° C | 58% | 1019.5 hPa | - | - | - | - |
| 1788439474 | 30° C | 58% | 1019.8 hPa | - | - | - | - |
| 1788439167 | 29.44° C | 57% | 1019.9 hPa | - | - | - | - |
| 1788438871 | 30° C | 57% | 1019.5 hPa | - | - | - | - |
| 1788438567 | 28.89° C | 59% | 1019 hPa | - | - | - | - |
| 1788438270 | 29.44° C | 60% | 1019.9 hPa | - | - | - | - |
| 1788437967 | 28.89° C | 59% | 1019.8 hPa | - | - | - | - |
| 1788437670 | 28.89° C | 59% | 1019.6 hPa | - | - | - | - |
| 1788437367 | 29.44° C | 58% | 1019.5 hPa | - | - | - | - |
| 1788437070 | 28.89° C | 59% | 1020 hPa | - | - | - | - |
| 1788436766 | 29.44° C | 60% | 1019.2 hPa | - | - | - | - |
| 1788436490 | 29.44° C | 60% | 1019 hPa | - | - | - | - |
| 1788436166 | 28.89° C | 60% | 1019.8 hPa | - | - | - | - |
| 1788435869 | 28.89° C | 59% | 1019.1 hPa | - | - | - | - |
| 1788435573 | 28.89° C | 60% | 1019.5 hPa | - | - | - | - |
| 1788435269 | 29.44° C | 60% | 1019.6 hPa | - | - | - | - |
| 1788434972 | 29.44° C | 61% | 1019.9 hPa | - | - | - | - |
| 1788434669 | 28.89° C | 62% | 1019.5 hPa | - | - | - | - |
| 1788434372 | 28.89° C | 62% | 1019.7 hPa | - | - | - | - |
| 1788434069 | 28.89° C | 61% | 1020 hPa | - | - | - | - |
* Rain since midnight (hover to see other rain measurements)
** Current wind speed in m/s (hover to see current wind gust speed)